Date/Time,Expocode,Latitude,Longitude,Depth,version,SOCAT_DOI,QC_Flag,P_sal,Temp,Temperature of Equilibration,Atmospheric Pressure,Equilibrator Pressure (relative),WOA_SSS,NCEP_SLP,ETOPO2_depth,dist_to_land,GVCO2,CO2 Mole Fraction,xCO2water_SST_dry,pCO2 In Water - Equilibrator Temperature,pCO2,fCO2water_equ_wet,fCO2water_SST_wet,fCO2,fCO2rec_src,fCO2  QC Flag,pCO2  QC Flag,P_sal  QC Flag,Temp  QC Flag
2018-08-09T06:59:25.000Z,26NA20180809,57.819,10.188,,2020.0U,SOCATENHANCEDDOI,B,,18.767,18.94,1010.26,1013.6,35.0,1015.7,64.0,68.0,,,,,,,,,0,9,9,9,9
2018-08-09T07:03:55.000Z,26NA20180809,57.816,10.151,,2020.0U,SOCATENHANCEDDOI,B,,18.629,18.82,1010.22,1013.8,35.0,1015.7,61.0,69.0,,,,,,,,,0,9,9,9,9
2018-08-09T07:08:26.000Z,26NA20180809,57.813,10.114,,2020.0U,SOCATENHANCEDDOI,B,,18.583,18.76,1010.39,1013.8,35.0,1015.7,59.0,69.0,,,,,,,,,0,9,9,9,9
2018-08-09T07:12:56.000Z,26NA20180809,57.811,10.078,,2020.0U,SOCATENHANCEDDOI,B,,18.437,18.62,1010.57,1013.7,35.0,1015.7,56.0,69.0,,,,,,,,,0,9,9,9,9
2018-08-09T07:17:48.000Z,26NA20180809,57.808,10.038,,2020.0U,SOCATENHANCEDDOI,B,,18.479,18.59,1010.2,1014.0,35.0,1015.7,56.0,69.0,,,,,,,,,0,9,9,9,9
2018-08-09T07:19:18.000Z,26NA20180809,57.807,10.026,,2020.0U,SOCATENHANCEDDOI,B,,18.518,18.66,1010.49,1014.0,35.0,1015.7,55.0,69.0,,,,,,,,,0,9,9,9,9
2018-08-09T07:20:48.000Z,26NA20180809,57.806,10.014,,2020.0U,SOCATENHANCEDDOI,B,,18.515,18.69,1010.19,1014.0,35.0,1015.7,54.0,69.0,,,,,,,,,0,9,9,9,9
2018-08-09T07:22:18.000Z,26NA20180809,57.805,10.002,,2020.0U,SOCATENHANCEDDOI,B,,18.556,18.69,1010.41,1014.1,35.0,1015.7,53.0,69.0,,,,,,,,,0,9,9,9,9
2018-08-09T07:23:49.000Z,26NA20180809,57.804,9.989,,2020.0U,SOCATENHANCEDDOI,B,,18.648,18.75,1010.46,1014.1,35.0,1015.7,53.0,69.0,,,,,,,,,0,9,9,9,9
2018-08-09T07:28:45.000Z,26NA20180809,57.8,9.949,,2020.0U,SOCATENHANCEDDOI,B,,18.879,19.0,1010.28,1013.9,35.0,1015.7,50.0,69.0,,388.1,,,378.2,,376.9,376.898,4,2,9,9,9
2018-08-09T07:30:18.000Z,26NA20180809,57.8,9.936,,2020.0U,SOCATENHANCEDDOI,B,,18.906,19.04,1010.41,1014.1,35.0,1015.7,48.0,69.0,,388.2,,,378.1,,376.8,376.798,4,2,9,9,9
2018-08-09T07:31:51.000Z,26NA20180809,57.798,9.924,,2020.0U,SOCATENHANCEDDOI,B,,18.931,19.06,1010.54,1014.1,35.0,1015.7,47.0,69.0,,388.4,,,378.3,,377.0,376.998,4,2,9,9,9
2018-08-09T07:33:23.000Z,26NA20180809,57.797,9.912,,2020.0U,SOCATENHANCEDDOI,B,,18.952,19.09,1010.52,1014.2,35.0,1015.7,46.0,69.0,,389.1,,,378.9,,377.6,377.596,4,2,9,9,9
2018-08-09T07:34:56.000Z,26NA20180809,57.796,9.899,,2020.0U,SOCATENHANCEDDOI,B,,18.959,19.12,1010.36,1014.1,35.0,1015.7,45.0,69.0,,390.1,,,379.5,,378.2,378.194,4,2,9,9,9
2018-08-09T07:36:29.000Z,26NA20180809,57.795,9.887,,2020.0U,SOCATENHANCEDDOI,B,,18.937,19.1,1010.53,1014.3,35.0,1015.7,44.0,69.0,,390.9,,,380.3,,379.0,378.991,4,2,9,9,9
2018-08-09T07:38:01.000Z,26NA20180809,57.794,9.874,,2020.0U,SOCATENHANCEDDOI,B,,18.896,19.09,1010.75,1014.2,35.0,1015.7,42.0,69.0,,391.3,,,380.2,,378.9,378.891,4,2,9,9,9
2018-08-09T07:39:34.000Z,26NA20180809,57.793,9.862,,2020.0U,SOCATENHANCEDDOI,B,,18.821,19.02,1010.88,1014.4,35.0,1015.7,40.0,69.0,,391.3,,,380.2,,378.9,378.889,4,2,9,9,9
2018-08-09T07:41:07.000Z,26NA20180809,57.792,9.849,,2020.0U,SOCATENHANCEDDOI,B,,18.755,18.95,1010.67,1014.3,35.0,1015.7,38.0,70.0,,391.6,,,380.6,,379.3,379.287,4,2,9,9,9
2018-08-09T07:42:39.000Z,26NA20180809,57.791,9.837,,2020.0U,SOCATENHANCEDDOI,B,,18.707,18.89,1010.57,1014.4,35.0,1015.7,37.0,70.0,,392.0,,,381.2,,379.9,379.884,4,2,9,9,9
2018-08-09T07:44:12.000Z,26NA20180809,57.79,9.825,,2020.0U,SOCATENHANCEDDOI,B,,18.635,18.83,1010.6,1014.2,35.0,1015.7,35.0,70.0,,392.4,,,381.3,,380.0,379.983,4,2,9,9,9
2018-08-09T07:45:45.000Z,26NA20180809,57.789,9.812,,2020.0U,SOCATENHANCEDDOI,B,,18.591,18.77,1010.74,1014.2,35.0,1015.7,34.0,69.0,,392.3,,,381.6,,380.2,380.281,4,2,9,9,9
2018-08-09T07:47:18.000Z,26NA20180809,57.788,9.8,,2020.0U,SOCATENHANCEDDOI,B,,18.567,18.74,1010.66,1014.3,35.0,1015.7,33.0,69.0,,392.3,,,381.7,,380.4,380.38,4,2,9,9,9
2018-08-09T07:48:50.000Z,26NA20180809,57.787,9.788,,2020.0U,SOCATENHANCEDDOI,B,,18.562,18.73,1010.75,1014.4,35.0,1015.7,32.0,70.0,,391.9,,,381.4,,380.1,380.081,4,2,9,9,9
2018-08-09T07:50:23.000Z,26NA20180809,57.786,9.775,,2020.0U,SOCATENHANCEDDOI,B,,18.584,18.73,1010.74,1014.5,35.0,1015.7,32.0,69.0,,391.3,,,381.2,,379.9,379.882,4,2,9,9,9
2018-08-09T07:51:56.000Z,26NA20180809,57.786,9.763,,2020.0U,SOCATENHANCEDDOI,B,,18.592,18.75,1011.08,1014.6,35.0,1015.7,32.0,70.0,,391.1,,,380.9,,379.6,379.583,4,2,9,9,9
2018-08-09T07:53:28.000Z,26NA20180809,57.785,9.751,,2020.0U,SOCATENHANCEDDOI,B,,18.576,18.75,1010.82,1014.6,35.0,1015.7,31.0,70.0,,390.7,,,380.3,,379.0,378.985,4,2,9,9,9
2018-08-09T07:55:01.000Z,26NA20180809,57.784,9.739,,2020.0U,SOCATENHANCEDDOI,B,,18.529,18.72,1010.86,1014.6,35.0,1015.7,31.0,70.0,,390.9,,,380.1,,378.8,378.785,4,2,9,9,9
2018-08-09T07:56:34.000Z,26NA20180809,57.783,9.726,,2020.0U,SOCATENHANCEDDOI,B,,18.5,18.69,1010.67,1014.6,35.0,1015.7,31.0,70.0,,390.3,,,379.6,,378.3,378.286,4,2,9,9,9
2018-08-09T07:58:06.000Z,26NA20180809,57.782,9.714,,2020.0U,SOCATENHANCEDDOI,B,,18.55,18.67,1010.76,1014.5,35.0,1015.7,31.0,70.0,,390.3,,,380.7,,379.4,379.383,4,2,9,9,9
2018-08-09T07:59:39.000Z,26NA20180809,57.782,9.702,,2020.0U,SOCATENHANCEDDOI,B,,18.558,18.71,1010.94,1014.5,35.0,1015.7,31.0,70.0,,390.6,,,380.5,,379.2,379.184,4,2,9,9,9
2018-08-09T08:01:12.000Z,26NA20180809,57.781,9.69,,2020.0U,SOCATENHANCEDDOI,B,,18.511,18.71,1010.94,1014.7,35.0,1015.7,31.0,70.0,,391.2,,,380.3,,379.0,378.984,4,2,9,9,9
2018-08-09T08:02:45.000Z,26NA20180809,57.78,9.677,,2020.0U,SOCATENHANCEDDOI,B,,18.493,18.66,1010.99,1014.6,35.0,1015.7,31.0,70.0,,391.2,,,380.9,,379.6,379.581,4,2,9,9,9
2018-08-09T08:04:17.000Z,26NA20180809,57.78,9.665,,2020.0U,SOCATENHANCEDDOI,B,,18.549,18.67,1011.02,1014.8,35.0,1015.7,30.0,70.0,,391.5,,,382.0,,380.7,380.678,4,2,9,9,9
2018-08-09T08:05:50.000Z,26NA20180809,57.779,9.652,,2020.0U,SOCATENHANCEDDOI,B,,18.633,18.74,1011.18,1014.8,35.0,1015.7,29.0,70.0,,391.5,,,382.2,,380.9,380.879,4,2,9,9,9
2018-08-09T08:07:23.000Z,26NA20180809,57.779,9.64,,2020.0U,SOCATENHANCEDDOI,B,,18.719,18.83,1011.01,1014.8,35.0,1015.7,29.0,70.0,,391.8,,,382.3,,381.0,380.98,4,2,9,9,9
2018-08-09T08:08:55.000Z,26NA20180809,57.779,9.628,,2020.0U,SOCATENHANCEDDOI,B,,18.773,18.88,1011.15,1014.7,35.0,1015.7,29.0,70.0,,392.4,,,382.9,,381.6,381.579,4,2,9,9,9
2018-08-09T08:10:28.000Z,26NA20180809,57.779,9.615,,2020.0U,SOCATENHANCEDDOI,B,,18.812,18.95,1010.95,1014.6,35.0,1015.7,29.0,70.0,,392.8,,,382.8,,381.5,381.48,4,2,9,9,9
2018-08-09T08:12:01.000Z,26NA20180809,57.779,9.603,,2020.0U,SOCATENHANCEDDOI,B,,18.805,18.97,1011.1,1014.7,35.0,1015.7,29.0,70.0,,393.3,,,382.9,,381.6,381.579,4,2,9,9,9
2018-08-09T08:13:54.000Z,26NA20180809,57.779,9.588,,2020.0U,SOCATENHANCEDDOI,B,,18.76,18.95,1011.08,1014.6,35.0,1015.7,29.0,70.0,,393.8,,,382.9,,381.6,381.579,4,2,9,9,9
2018-08-09T08:15:27.000Z,26NA20180809,57.778,9.575,,2020.0U,SOCATENHANCEDDOI,B,,18.727,18.91,1010.76,1014.8,35.0,1015.7,30.0,70.0,,393.5,,,382.8,,381.5,381.478,4,2,9,9,9
2018-08-09T08:17:01.000Z,26NA20180809,57.778,9.563,,2020.0U,SOCATENHANCEDDOI,B,,18.677,18.87,1010.85,1014.8,35.0,1015.7,31.0,70.0,,393.4,,,382.6,,381.3,381.278,4,2,9,9,9
2018-08-09T08:18:32.000Z,26NA20180809,57.778,9.551,,2020.0U,SOCATENHANCEDDOI,B,,18.672,18.83,1010.71,1014.7,35.0,1015.7,32.0,71.0,,393.6,,,383.3,,382.0,381.976,4,2,9,9,9
2018-08-09T08:20:05.000Z,26NA20180809,57.778,9.538,,2020.0U,SOCATENHANCEDDOI,B,,18.67,18.84,1011.04,1014.7,35.0,1015.7,34.0,71.0,,393.7,,,383.2,,381.9,381.876,4,2,9,9,9
2018-08-09T08:21:38.000Z,26NA20180809,57.778,9.526,,2020.0U,SOCATENHANCEDDOI,B,,18.658,18.83,1011.06,1014.8,35.0,1015.7,36.0,71.0,,393.9,,,383.5,,382.1,382.175,4,2,9,9,9
2018-08-09T08:23:11.000Z,26NA20180809,57.777,9.513,,2020.0U,SOCATENHANCEDDOI,B,,18.66,18.82,1010.98,1014.8,35.0,1015.7,38.0,71.0,,394.4,,,384.1,,382.7,382.773,4,2,9,9,9
2018-08-09T08:24:43.000Z,26NA20180809,57.777,9.501,,2020.0U,SOCATENHANCEDDOI,B,,18.655,18.82,1010.93,1014.8,35.0,1015.7,40.0,71.0,,394.5,,,384.2,,382.8,382.872,4,2,9,9,9
2018-08-09T08:26:16.000Z,26NA20180809,57.777,9.488,,2020.0U,SOCATENHANCEDDOI,B,,18.64,18.81,1010.84,1014.8,35.0,1015.7,41.0,71.0,,394.9,,,384.4,,383.1,383.071,4,2,9,9,9
2018-08-09T08:27:49.000Z,26NA20180809,57.777,9.476,,2020.0U,SOCATENHANCEDDOI,B,,18.627,18.8,1011.14,1014.8,35.0,1015.7,42.0,72.0,,395.0,,,384.5,,383.1,383.171,4,2,9,9,9
2018-08-09T08:29:22.000Z,26NA20180809,57.777,9.464,,2020.0U,SOCATENHANCEDDOI,B,,18.62,18.79,1010.94,1014.8,35.0,1015.7,43.0,72.0,,395.1,,,384.6,,383.3,383.27,4,2,9,9,9
2018-08-09T08:30:54.000Z,26NA20180809,57.776,9.451,,2020.0U,SOCATENHANCEDDOI,B,,18.62,18.78,1011.05,1014.7,35.0,1015.7,44.0,72.0,,395.5,,,385.2,,383.9,383.868,4,2,9,9,9
2018-08-09T08:32:27.000Z,26NA20180809,57.776,9.439,,2020.0U,SOCATENHANCEDDOI,B,,18.618,18.78,1011.16,1014.7,35.0,1015.7,47.0,72.0,,395.4,,,385.1,,383.8,383.769,4,2,9,9,9
2018-08-09T08:34:00.000Z,26NA20180809,57.776,9.427,,2020.0U,SOCATENHANCEDDOI,B,,18.629,18.79,1010.73,1014.7,35.0,1015.7,49.0,73.0,,395.6,,,385.2,,383.9,383.869,4,2,9,9,9
2018-08-09T08:35:32.000Z,26NA20180809,57.776,9.414,,2020.0U,SOCATENHANCEDDOI,B,,18.62,18.79,1010.87,1014.6,35.0,1015.7,51.0,73.0,,395.7,,,385.2,,383.9,383.869,4,2,9,9,9
2018-08-09T08:37:05.000Z,26NA20180809,57.776,9.402,,2020.0U,SOCATENHANCEDDOI,B,,18.591,18.77,1011.0,1014.8,35.0,1015.7,53.0,73.0,,395.9,,,385.3,,383.9,383.967,4,2,9,9,9
2018-08-09T08:38:38.000Z,26NA20180809,57.776,9.389,,2020.0U,SOCATENHANCEDDOI,B,,18.542,18.74,1010.99,1014.8,35.0,1015.7,56.0,74.0,,395.8,,,384.9,,383.6,383.568,4,2,9,9,9
2018-08-09T08:40:11.000Z,26NA20180809,57.776,9.377,,2020.0U,SOCATENHANCEDDOI,B,,18.53,18.7,1010.99,1014.8,35.0,1015.7,58.0,74.0,,395.2,,,384.8,,383.4,383.468,4,2,9,9,9
2018-08-09T08:41:43.000Z,26NA20180809,57.776,9.364,,2020.0U,SOCATENHANCEDDOI,B,,18.524,18.69,1011.13,1014.7,35.0,1015.7,61.0,74.0,,394.8,,,384.4,,383.1,383.07,4,2,9,9,9
2018-08-09T08:43:16.000Z,26NA20180809,57.776,9.352,,2020.0U,SOCATENHANCEDDOI,B,,18.515,18.68,1010.99,1014.6,35.0,1015.7,64.0,74.0,,394.5,,,384.1,,382.8,382.771,4,2,9,9,9
2018-08-09T08:44:49.000Z,26NA20180809,57.776,9.339,,2020.0U,SOCATENHANCEDDOI,B,,18.501,18.68,1010.93,1014.7,35.0,1015.7,68.0,75.0,,394.1,,,383.5,,382.2,382.172,4,2,9,9,9
2018-08-09T08:46:22.000Z,26NA20180809,57.776,9.327,,2020.0U,SOCATENHANCEDDOI,B,,18.487,18.66,1010.89,1014.6,35.0,1015.7,73.0,75.0,,394.0,,,383.5,,382.2,382.172,4,2,9,9,9
2018-08-09T08:47:54.000Z,26NA20180809,57.775,9.314,,2020.0U,SOCATENHANCEDDOI,B,,18.516,18.66,1011.01,1014.6,35.0,1015.7,77.0,75.0,,394.0,,,384.0,,382.7,382.671,4,2,9,9,9
2018-08-09T08:49:27.000Z,26NA20180809,57.775,9.302,,2020.0U,SOCATENHANCEDDOI,B,,18.537,18.69,1010.89,1014.7,35.0,1015.7,82.0,76.0,,394.1,,,384.0,,382.6,382.671,4,2,9,9,9
2018-08-09T08:51:00.000Z,26NA20180809,57.776,9.289,,2020.0U,SOCATENHANCEDDOI,B,,18.562,18.7,1010.99,1014.7,35.0,1015.7,86.0,76.0,,393.8,,,383.9,,382.6,382.572,4,2,9,9,9
2018-08-09T08:52:32.000Z,26NA20180809,57.776,9.277,,2020.0U,SOCATENHANCEDDOI,B,,18.583,18.74,1010.89,1014.7,35.0,1015.7,90.0,76.0,,394.3,,,384.1,,382.8,382.772,4,2,9,9,9
2018-08-09T08:54:05.000Z,26NA20180809,57.776,9.264,,2020.0U,SOCATENHANCEDDOI,B,,18.628,18.77,1011.03,1014.6,35.0,1015.7,94.0,77.0,,393.7,,,383.7,,382.3,382.374,4,2,9,9,9
2018-08-09T08:55:38.000Z,26NA20180809,57.776,9.252,,2020.0U,SOCATENHANCEDDOI,B,,18.665,18.8,1011.05,1014.6,35.0,1015.7,97.0,77.0,,393.8,,,383.9,,382.6,382.574,4,2,9,9,9
2018-08-09T08:57:12.000Z,26NA20180809,57.776,9.239,,2020.0U,SOCATENHANCEDDOI,B,,18.736,18.85,1011.05,1014.7,35.0,1015.7,101.0,77.0,,393.3,,,383.7,,382.4,382.376,4,2,9,9,9
2018-08-09T08:58:44.000Z,26NA20180809,57.776,9.227,,2020.0U,SOCATENHANCEDDOI,B,,18.837,18.93,1011.04,1014.8,35.0,1015.7,106.0,77.0,,391.7,,,382.5,,381.2,381.181,4,2,9,9,9
2018-08-09T09:00:17.000Z,26NA20180809,57.776,9.215,,2020.0U,SOCATENHANCEDDOI,B,,18.902,19.02,1011.11,1014.9,35.0,1015.7,110.0,78.0,,390.0,,,380.4,,379.1,379.089,4,2,9,9,9
2018-08-09T09:01:50.000Z,26NA20180809,57.776,9.203,,2020.0U,SOCATENHANCEDDOI,B,,18.953,19.08,1011.08,1014.9,35.0,1015.7,114.0,78.0,,388.4,,,378.7,,377.4,377.396,4,2,9,9,9
2018-08-09T09:03:23.000Z,26NA20180809,57.776,9.19,,2020.0U,SOCATENHANCEDDOI,B,,18.996,19.13,1011.12,1014.9,35.0,1015.7,118.0,78.0,,387.0,,,377.2,,375.9,375.902,4,2,9,9,9
2018-08-09T09:04:55.000Z,26NA20180809,57.775,9.178,,2020.0U,SOCATENHANCEDDOI,B,,19.014,19.16,1011.2,1014.9,35.0,1015.7,122.0,79.0,,386.2,,,376.2,,375.0,374.906,4,2,9,9,9
2018-08-09T09:06:28.000Z,26NA20180809,57.776,9.166,,2020.0U,SOCATENHANCEDDOI,B,,19.039,19.18,1011.2,1014.9,35.0,1015.7,126.0,79.0,,385.2,,,375.2,,374.0,373.91,4,2,9,9,9
2018-08-09T09:08:01.000Z,26NA20180809,57.776,9.154,,2020.0U,SOCATENHANCEDDOI,B,,19.046,19.2,1011.18,1014.9,35.0,1015.7,129.0,79.0,,384.6,,,374.5,,373.2,373.212,4,2,9,9,9
2018-08-09T09:09:33.000Z,26NA20180809,57.775,9.141,,2020.0U,SOCATENHANCEDDOI,B,,19.015,19.2,1011.27,1014.9,35.0,1015.7,132.0,78.0,,384.0,,,373.4,,372.1,372.115,4,2,9,9,9
2018-08-09T09:11:06.000Z,26NA20180809,57.775,9.129,,2020.0U,SOCATENHANCEDDOI,B,,18.912,19.14,1011.25,1014.9,35.0,1015.7,135.0,78.0,,383.7,,,372.5,,371.2,371.217,4,2,9,9,9
2018-08-09T09:13:00.000Z,26NA20180809,57.775,9.114,,2020.0U,SOCATENHANCEDDOI,B,,18.75,18.99,1011.32,1014.9,35.0,1015.7,138.0,77.0,,383.5,,,372.2,,370.9,370.915,4,2,9,9,9
2018-08-09T09:14:32.000Z,26NA20180809,57.775,9.102,,2020.0U,SOCATENHANCEDDOI,B,,18.804,18.92,1011.4,1015.0,35.0,1015.7,141.0,77.0,,383.0,,,373.7,,372.4,372.411,4,2,9,9,9
2018-08-09T09:16:05.000Z,26NA20180809,57.775,9.09,,2020.0U,SOCATENHANCEDDOI,B,,18.901,19.0,1011.41,1015.0,35.0,1015.7,143.0,77.0,,382.5,,,373.4,,372.1,372.113,4,2,9,9,9
2018-08-09T09:17:38.000Z,26NA20180809,57.775,9.078,,2020.0U,SOCATENHANCEDDOI,B,,18.967,19.09,1011.32,1015.1,35.0,1015.7,146.0,76.0,,382.1,,,372.7,,371.4,371.417,4,2,9,9,9
2018-08-09T09:19:12.000Z,26NA20180809,57.774,9.065,,2020.0U,SOCATENHANCEDDOI,B,,19.011,19.14,1011.32,1015.0,35.0,1015.7,148.0,76.0,,382.3,,,372.8,,371.5,371.517,4,2,9,9,9
2018-08-09T09:20:45.000Z,26NA20180809,57.774,9.053,,2020.0U,SOCATENHANCEDDOI,B,,19.019,19.18,1011.36,1015.0,35.0,1015.7,151.0,76.0,,383.6,,,373.5,,372.2,372.215,4,2,9,9,9
2018-08-09T09:22:17.000Z,26NA20180809,57.774,9.041,,2020.0U,SOCATENHANCEDDOI,B,,19.017,19.18,1011.39,1015.1,35.0,1015.7,154.0,75.0,,385.6,,,375.4,,374.1,374.108,4,2,9,9,9
2018-08-09T09:23:50.000Z,26NA20180809,57.773,9.028,,2020.0U,SOCATENHANCEDDOI,B,,18.971,19.17,1011.4,1015.2,35.0,1015.7,157.0,75.0,,387.0,,,376.3,,375.0,375.004,4,2,9,9,9
2018-08-09T09:25:23.000Z,26NA20180809,57.773,9.016,,2020.0U,SOCATENHANCEDDOI,B,,18.948,19.12,1011.51,1015.2,35.0,1015.7,160.0,75.0,,388.1,,,377.8,,376.5,376.499,4,2,9,9,9
2018-08-09T09:26:56.000Z,26NA20180809,57.773,9.004,,2020.0U,SOCATENHANCEDDOI,B,,18.945,19.11,1011.44,1015.2,35.0,1015.7,164.0,74.0,,387.5,,,377.3,,376.1,376.0,4,2,9,9,9
2018-08-09T09:28:28.000Z,26NA20180809,57.772,8.992,,2020.0U,SOCATENHANCEDDOI,B,,18.807,19.09,1011.38,1015.2,30.697,1015.7,168.0,74.0,,387.2,,,375.2,,373.9,373.905,4,2,9,9,9
2018-08-09T09:30:01.000Z,26NA20180809,57.772,8.979,,2020.0U,SOCATENHANCEDDOI,B,,18.347,18.81,1011.52,1015.3,30.697,1015.7,171.0,74.0,,386.2,,,371.5,,370.2,370.211,4,2,9,9,9
2018-08-09T09:31:34.000Z,26NA20180809,57.772,8.967,,2020.0U,SOCATENHANCEDDOI,B,,18.009,18.34,1011.51,1015.3,30.697,1015.7,174.0,73.0,,384.2,,,371.9,,370.6,370.604,4,2,9,9,9
2018-08-09T09:36:04.000Z,26NA20180809,57.771,8.931,,2020.0U,SOCATENHANCEDDOI,B,,17.731,17.97,1011.42,1015.2,30.697,1015.7,180.0,73.0,,,,,,,,,0,9,9,9,9
2018-08-09T09:40:35.000Z,26NA20180809,57.77,8.895,,2020.0U,SOCATENHANCEDDOI,B,,17.677,17.87,1011.31,1015.3,30.697,1015.7,184.0,72.0,,,,,,,,,0,9,9,9,9
2018-08-09T09:45:06.000Z,26NA20180809,57.77,8.858,,2020.0U,SOCATENHANCEDDOI,B,,17.684,17.88,1011.41,1015.3,30.697,1015.7,194.0,71.0,,,,,,,,,0,9,9,9,9
2018-08-09T09:49:36.000Z,26NA20180809,57.769,8.822,,2020.0U,SOCATENHANCEDDOI,B,,17.827,17.97,1011.43,1015.3,30.697,1015.7,218.0,70.0,,,,,,,,,0,9,9,9,9
2018-08-09T09:54:07.000Z,26NA20180809,57.769,8.786,,2020.0U,SOCATENHANCEDDOI,B,,17.929,18.09,1011.52,1015.2,30.697,1015.7,241.0,68.0,,,,,,,,,0,9,9,9,9
2018-08-09T09:55:38.000Z,26NA20180809,57.769,8.774,,2020.0U,SOCATENHANCEDDOI,B,,17.95,18.11,1011.49,1015.2,30.697,1015.7,246.0,68.0,,,,,,,,,0,9,9,9,9
2018-08-09T09:57:08.000Z,26NA20180809,57.768,8.762,,2020.0U,SOCATENHANCEDDOI,B,,17.941,18.12,1011.5,1015.4,30.697,1015.7,250.0,67.0,,,,,,,,,0,9,9,9,9
2018-08-09T09:58:39.000Z,26NA20180809,57.768,8.749,,2020.0U,SOCATENHANCEDDOI,B,,17.92,18.11,1011.59,1015.4,30.697,1015.1,254.0,67.0,,,,,,,,,0,9,9,9,9
2018-08-09T10:00:09.000Z,26NA20180809,57.768,8.737,,2020.0U,SOCATENHANCEDDOI,B,,17.882,18.09,1011.52,1015.4,30.697,1015.1,255.0,67.0,,,,,,,,,0,9,9,9,9
2018-08-09T10:05:05.000Z,26NA20180809,57.767,8.697,,2020.0U,SOCATENHANCEDDOI,B,,17.785,17.99,1011.54,1015.4,30.697,1015.1,253.0,65.0,,374.3,,,364.5,,363.2,363.226,4,2,9,9,9
2018-08-09T10:06:39.000Z,26NA20180809,57.767,8.685,,2020.0U,SOCATENHANCEDDOI,B,,17.807,18.0,1011.56,1015.2,30.697,1015.1,251.0,65.0,,374.2,,,364.5,,363.2,363.227,4,2,9,9,9
2018-08-09T10:08:11.000Z,26NA20180809,57.767,8.672,,2020.0U,SOCATENHANCEDDOI,B,,17.781,17.97,1011.68,1015.4,30.697,1015.1,250.0,64.0,,374.0,,,364.5,,363.2,363.226,4,2,9,9,9
2018-08-09T10:09:44.000Z,26NA20180809,57.767,8.66,,2020.0U,SOCATENHANCEDDOI,B,,17.78,17.95,1011.69,1015.4,30.697,1015.1,248.0,64.0,,374.0,,,364.8,,363.5,363.525,4,2,9,9,9
2018-08-09T10:11:17.000Z,26NA20180809,57.767,8.648,,2020.0U,SOCATENHANCEDDOI,B,,17.807,17.97,1011.64,1015.4,30.697,1015.1,248.0,63.0,,373.7,,,364.6,,363.3,363.326,4,2,9,9,9
2018-08-09T10:13:10.000Z,26NA20180809,57.766,8.632,,2020.0U,SOCATENHANCEDDOI,B,,17.871,18.01,1011.54,1015.4,30.697,1015.1,253.0,63.0,,373.4,,,364.6,,363.3,363.327,4,2,9,9,9
2018-08-09T10:14:43.000Z,26NA20180809,57.766,8.62,,2020.0U,SOCATENHANCEDDOI,B,,17.916,18.07,1011.75,1015.6,30.697,1015.1,257.0,62.0,,373.6,,,364.5,,363.3,363.228,4,2,9,9,9
2018-08-09T10:16:16.000Z,26NA20180809,57.766,8.607,,2020.0U,SOCATENHANCEDDOI,B,,17.941,18.1,1011.74,1015.6,30.697,1015.1,263.0,62.0,,373.2,,,364.1,,362.9,362.83,4,2,9,9,9
2018-08-09T10:17:49.000Z,26NA20180809,57.766,8.595,,2020.0U,SOCATENHANCEDDOI,B,,17.969,18.13,1011.8,1015.5,30.697,1015.1,270.0,62.0,,373.3,,,364.1,,362.9,362.83,4,2,9,9,9
2018-08-09T10:19:21.000Z,26NA20180809,57.766,8.582,,2020.0U,SOCATENHANCEDDOI,B,,17.995,18.15,1011.84,1015.6,30.697,1015.1,277.0,61.0,,373.4,,,364.3,,363.0,363.03,4,2,9,9,9
2018-08-09T10:20:54.000Z,26NA20180809,57.765,8.57,,2020.0U,SOCATENHANCEDDOI,B,,18.028,18.18,1011.85,1015.6,30.697,1015.1,285.0,61.0,,373.3,,,364.3,,363.0,363.03,4,2,9,9,9
2018-08-09T10:22:27.000Z,26NA20180809,57.765,8.557,,2020.0U,SOCATENHANCEDDOI,B,,18.054,18.21,1011.97,1015.6,30.697,1015.1,293.0,60.0,,373.2,,,364.2,,362.9,362.931,4,2,9,9,9
2018-08-09T10:23:59.000Z,26NA20180809,57.765,8.545,,2020.0U,SOCATENHANCEDDOI,B,,18.081,18.24,1012.0,1015.5,30.697,1015.1,300.0,60.0,,373.3,,,364.1,,362.9,362.832,4,2,9,9,9
2018-08-09T10:25:32.000Z,26NA20180809,57.765,8.532,,2020.0U,SOCATENHANCEDDOI,B,,18.105,18.26,1011.96,1015.6,30.697,1015.1,308.0,59.0,,373.0,,,363.9,,362.7,362.633,4,2,9,9,9
2018-08-09T10:27:05.000Z,26NA20180809,57.764,8.52,,2020.0U,SOCATENHANCEDDOI,B,,18.123,18.29,1012.01,1015.7,30.697,1015.1,315.0,59.0,,373.1,,,363.9,,362.6,362.633,4,2,9,9,9
2018-08-09T10:28:38.000Z,26NA20180809,57.764,8.507,,2020.0U,SOCATENHANCEDDOI,B,,18.133,18.3,1011.85,1015.8,30.697,1015.1,322.0,59.0,,373.3,,,364.0,,362.8,362.733,4,2,9,9,9
2018-08-09T10:30:10.000Z,26NA20180809,57.764,8.495,,2020.0U,SOCATENHANCEDDOI,B,,18.142,18.31,1011.95,1015.6,30.697,1015.1,328.0,58.0,,373.2,,,363.9,,362.6,362.633,4,2,9,9,9
2018-08-09T10:31:43.000Z,26NA20180809,57.764,8.482,,2020.0U,SOCATENHANCEDDOI,B,,18.121,18.31,1011.83,1015.6,30.697,1015.1,334.0,58.0,,373.5,,,363.8,,362.6,362.533,4,2,9,9,9
2018-08-09T10:33:16.000Z,26NA20180809,57.764,8.469,,2020.0U,SOCATENHANCEDDOI,B,,18.096,18.29,1011.92,1015.6,30.697,1015.1,339.0,58.0,,373.3,,,363.6,,362.3,362.334,4,2,9,9,9
2018-08-09T10:34:49.000Z,26NA20180809,57.763,8.457,,2020.0U,SOCATENHANCEDDOI,B,,18.059,18.26,1011.92,1015.6,30.697,1015.1,343.0,57.0,,373.3,,,363.5,,362.3,362.234,4,2,9,9,9
2018-08-09T10:36:23.000Z,26NA20180809,57.763,8.444,,2020.0U,SOCATENHANCEDDOI,B,,17.999,18.22,1011.95,1015.7,30.697,1015.1,348.0,57.0,,372.7,,,362.7,,361.4,361.435,4,2,9,9,9
2018-08-09T10:37:55.000Z,26NA20180809,57.763,8.431,,2020.0U,SOCATENHANCEDDOI,B,,17.961,18.17,1011.93,1015.6,30.697,1015.1,352.0,56.0,,372.6,,,362.7,,361.5,361.435,4,2,9,9,9
2018-08-09T10:39:28.000Z,26NA20180809,57.762,8.418,,2020.0U,SOCATENHANCEDDOI,B,,17.899,18.12,1011.99,1015.7,30.697,1015.1,355.0,56.0,,372.7,,,362.7,,361.4,361.434,4,2,9,9,9
2018-08-09T10:41:02.000Z,26NA20180809,57.762,8.405,,2020.0U,SOCATENHANCEDDOI,B,,17.835,18.06,1011.88,1015.7,30.697,1015.1,360.0,56.0,,372.3,,,362.3,,361.1,361.034,4,2,9,9,9
2018-08-09T10:42:34.000Z,26NA20180809,57.762,8.393,,2020.0U,SOCATENHANCEDDOI,B,,17.791,18.0,1011.97,1015.6,30.697,1015.1,365.0,55.0,,372.2,,,362.4,,361.2,361.133,4,2,9,9,9
2018-08-09T10:44:06.000Z,26NA20180809,57.761,8.38,,2020.0U,SOCATENHANCEDDOI,B,,17.755,17.96,1011.94,1015.6,30.697,1015.1,370.0,55.0,,372.6,,,362.9,,361.7,361.631,4,2,9,9,9
2018-08-09T10:45:39.000Z,26NA20180809,57.761,8.367,,2020.0U,SOCATENHANCEDDOI,B,,17.71,17.92,1011.85,1015.6,30.697,1015.1,376.0,55.0,,372.9,,,363.1,,361.8,361.829,4,2,9,9,9
2018-08-09T10:47:12.000Z,26NA20180809,57.761,8.355,,2020.0U,SOCATENHANCEDDOI,B,,17.7,17.88,1011.83,1015.5,30.697,1015.1,382.0,54.0,,373.0,,,363.7,,362.4,362.427,4,2,9,9,9
2018-08-09T10:48:45.000Z,26NA20180809,57.761,8.342,,2020.0U,SOCATENHANCEDDOI,B,,17.825,17.95,1011.94,1015.6,30.697,1015.1,387.0,54.0,,372.9,,,364.5,,363.2,363.226,4,2,9,9,9
2018-08-09T10:50:17.000Z,26NA20180809,57.76,8.329,,2020.0U,SOCATENHANCEDDOI,B,,17.921,18.05,1011.89,1015.5,30.697,1015.1,393.0,54.0,,374.1,,,365.4,,364.2,364.125,4,2,9,9,9
2018-08-09T10:51:50.000Z,26NA20180809,57.76,8.316,,2020.0U,SOCATENHANCEDDOI,B,,17.963,18.11,1011.94,1015.7,30.697,1015.1,399.0,53.0,,374.8,,,365.8,,364.6,364.524,4,2,9,9,9
2018-08-09T10:53:23.000Z,26NA20180809,57.76,8.303,,2020.0U,SOCATENHANCEDDOI,B,,17.996,18.15,1011.96,1015.7,30.697,1015.1,404.0,53.0,,375.2,,,366.1,,364.9,364.823,4,2,9,9,9
2018-08-09T10:54:56.000Z,26NA20180809,57.76,8.291,,2020.0U,SOCATENHANCEDDOI,B,,18.024,18.18,1011.99,1015.8,30.697,1015.1,410.0,53.0,,375.1,,,366.0,,364.7,364.724,4,2,9,9,9
2018-08-09T10:56:29.000Z,26NA20180809,57.76,8.278,,2020.0U,SOCATENHANCEDDOI,B,,18.035,18.21,1012.02,1015.7,30.697,1015.1,416.0,52.0,,375.3,,,365.9,,364.7,364.625,4,2,9,9,9
2018-08-09T10:58:03.000Z,26NA20180809,57.76,8.265,,2020.0U,SOCATENHANCEDDOI,B,,18.038,18.22,1011.94,1015.7,30.697,1015.1,421.0,52.0,,375.1,,,365.5,,364.3,364.226,4,2,9,9,9
2018-08-09T10:59:35.000Z,26NA20180809,57.76,8.252,,2020.0U,SOCATENHANCEDDOI,B,,18.019,18.2,1011.83,1015.5,30.697,1015.1,425.0,52.0,,374.7,,,365.2,,363.9,363.927,4,2,9,9,9
2018-08-09T11:01:08.000Z,26NA20180809,57.76,8.239,,2020.0U,SOCATENHANCEDDOI,B,,18.001,18.19,1011.91,1015.7,30.697,1015.1,428.0,51.0,,374.6,,,365.0,,363.7,363.727,4,2,9,9,9
2018-08-09T11:02:41.000Z,26NA20180809,57.759,8.226,,2020.0U,SOCATENHANCEDDOI,B,,17.912,18.12,1011.99,1015.7,30.697,1015.1,430.0,51.0,,374.0,,,364.2,,362.9,362.929,4,2,9,9,9
2018-08-09T11:04:14.000Z,26NA20180809,57.759,8.213,,2020.0U,SOCATENHANCEDDOI,B,,17.833,18.09,1011.93,1015.6,30.697,1015.1,432.0,51.0,,373.8,,,363.2,,361.9,361.931,4,2,9,9,9
2018-08-09T11:05:47.000Z,26NA20180809,57.759,8.2,,2020.0U,SOCATENHANCEDDOI,B,,17.894,18.01,1011.98,1015.6,30.697,1015.1,433.0,50.0,,373.2,,,364.8,,363.5,363.526,4,2,9,9,9
2018-08-09T11:07:19.000Z,26NA20180809,57.759,8.187,,2020.0U,SOCATENHANCEDDOI,B,,17.779,18.12,1011.95,1015.6,30.697,1015.1,435.0,50.0,,371.9,,,360.1,,358.8,358.841,4,2,9,9,9
2018-08-09T11:08:52.000Z,26NA20180809,57.759,8.174,,2020.0U,SOCATENHANCEDDOI,B,,18.225,18.08,1011.92,1015.6,30.697,1015.1,437.0,49.0,,370.4,,,366.1,,364.8,364.827,4,2,9,9,9